Theta_e
300 300 300 299 301 301 301 302 303 303 302 301 300 300 300 300 299 298 298 298 298 298 298 297 297 296 296 294 292 292 292 293 291 291 294 296 296 297 298 299 301 317 322
299 299 299 298 298 299 300 302 303 303 303 300 299 299 299 299 299 298 298 298 298 297 297 296 296 296 296 295 293 292 291 290 290 292 293 298 299 310 310 307 303 316 321
299 298 298 298 298 299 301 302 303 303 301 299 299 299 298 298 298 298 297 297 297 297 296 295 295 295 295 293 293 292 290 289 290 292 292 295 298 297 306 316 315 317 322
298 298 297 298 298 300 300 303 303 303 299 299 298 298 297 297 297 297 296 296 296 296 295 295 294 294 294 293 291 290 288 288 290 291 292 293 293 295 297 311 316 319 320
297 297 297 297 298 300 302 303 302 300 298 298 298 297 297 296 296 296 296 295 295 295 295 294 294 293 293 291 289 288 287 287 288 290 291 292 293 294 295 295 305 313 318
297 297 297 298 299 301 302 302 301 298 298 298 297 297 296 296 296 295 295 295 294 295 294 294 292 291 290 289 288 287 287 286 287 288 290 291 292 294 295 295 298 303 314
298 298 297 299 302 303 302 301 299 298 297 297 297 297 296 296 295 295 294 294 294 294 293 292 290 289 288 287 286 286 286 286 287 288 289 290 292 292 293 293 293 297 308
301 301 302 302 302 302 301 300 299 298 297 297 296 296 295 295 295 294 294 294 293 292 292 290 288 288 287 287 286 286 286 286 286 287 288 289 290 291 292 292 292 295 300
301 301 301 301 301 301 300 299 298 297 296 296 296 295 295 294 294 294 294 293 292 291 290 289 288 287 287 286 286 286 286 286 286 286 287 288 290 291 291 291 292 293 296
301 301 301 301 301 300 300 299 297 296 295 295 295 295 295 294 294 294 293 293 292 290 290 288 287 287 286 286 286 286 286 286 286 286 287 288 289 290 290 290 290 291 295
301 301 301 300 300 300 299 298 296 295 295 294 294 295 294 293 293 293 293 292 292 290 289 288 287 286 286 286 286 286 286 286 286 286 286 287 288 289 290 290 290 290 292
301 301 300 300 299 299 299 297 295 294 294 294 294 293 293 292 292 292 292 292 292 291 289 288 287 287 286 286 286 285 286 285 285 286 286 286 287 288 288 289 289 290 290
300 300 297 298 299 298 296 295 294 293 292 292 292 291 291 291 291 291 291 291 291 291 290 288 286 286 286 286 286 285 285 285 285 285 285 285 286 287 288 288 289 289 290
298 298 298 297 296 295 294 293 292 292 292 292 291 291 291 291 290 290 290 290 290 290 290 288 286 285 285 285 285 285 285 285 285 285 285 285 285 286 287 288 288 288 289
297 297 296 295 294 293 293 292 291 292 292 291 291 291 291 291 290 290 290 290 290 289 289 288 287 286 285 285 285 284 284 284 285 285 284 285 285 285 286 287 287 288 288
297 296 294 292 292 292 291 291 291 291 290 290 290 290 290 290 289 289 289 289 289 289 288 288 286 285 285 285 284 284 284 284 284 284 284 284 284 285 284 285 286 287 287
294 293 292 292 292 291 291 290 290 290 290 290 290 289 289 289 289 288 288 288 288 288 287 287 286 285 284 284 284 283 283 284 284 284 285 284 284 284 285 285 287 287 288
293 293 292 291 291 290 290 290 290 289 289 289 289 288 288 288 287 287 286 287 286 286 286 286 285 284 283 283 283 283 283 283 284 284 285 285 285 284 285 285 285 286 288
292 291 290 290 290 290 289 289 289 289 288 288 288 287 286 286 285 285 285 284 284 284 284 284 283 282 282 283 283 282 282 283 283 283 284 284 284 284 285 285 285 286 286
290 290 290 290 290 289 289 289 288 288 288 287 286 285 284 283 283 282 282 282 281 281 281 282 281 281 281 282 282 282 282 282 283 283 283 283 284 284 285 285 285 286 286
291 291 290 290 290 289 288 287 287 287 286 285 285 284 282 282 282 281 281 280 280 280 280 280 280 281 281 282 282 281 282 282 282 283 283 283 283 284 285 285 285 285 286
291 291 290 290 289 288 287 286 285 285 284 283 283 282 282 281 280 279 279 279 279 279 279 280 280 280 281 281 281 281 282 282 282 283 283 283 283 284 284 285 286 286 286
291 290 289 289 288 286 285 284 284 283 283 282 282 281 281 280 279 278 278 278 279 279 279 280 280 281 281 282 282 282 282 283 283 283 283 284 284 284 284 284 285 287 287
289 288 287 286 286 284 283 283 282 282 281 281 281 280 279 279 278 279 279 279 279 280 280 280 281 281 281 281 282 282 282 282 283 283 283 284 284 285 284 284 284 286 287
289 287 285 284 283 282 281 281 281 280 280 279 279 279 278 278 279 279 280 280 280 280 280 280 281 281 282 282 282 282 282 283 284 284 284 283 283 283 285 285 284 285 286
285 284 283 281 281 280 280 280 279 279 279 278 278 278 278 279 279 279 280 280 280 280 280 281 281 281 282 282 283 283 283 284 284 285 284 284 284 284 283 285 285 285 285
Wind_Speed
23 25 24 21 17 13 9 6 8 9 10 14 15 14 14 16 18 20 21 23 25 27 27 28 29 29 30 28 27 27 27 28 26 28 29 28 18 19 25 27 32 37 43
24 28 26 23 19 14 10 8 8 9 12 15 14 14 16 17 17 20 22 24 26 27 28 29 29 29 30 29 27 27 26 25 19 18 21 15 15 11 17 23 27 39 37
27 24 25 23 20 16 11 10 10 10 14 14 14 14 15 17 18 20 22 23 25 28 29 29 29 28 28 27 27 27 25 22 19 13 9 9 6 24 11 12 21 29 29
23 20 21 23 20 16 12 11 10 12 14 14 14 15 15 16 19 19 21 24 26 27 28 29 28 27 27 26 25 23 23 22 17 13 9 11 13 8 16 10 7 20 27
18 19 19 21 19 14 12 11 10 14 15 15 15 15 15 16 17 20 22 23 24 25 27 28 26 26 25 24 24 23 22 20 18 15 14 14 14 15 18 24 27 14 15
17 17 19 20 16 13 11 10 12 15 16 15 16 16 16 16 18 19 22 24 25 24 22 24 24 23 24 24 23 23 23 21 19 17 16 16 14 11 12 16 26 25 18
16 17 18 15 13 11 10 11 14 16 17 17 17 17 16 17 19 21 23 24 25 25 23 22 23 23 24 24 24 23 23 22 20 18 17 16 17 16 16 18 22 22 29
13 14 13 12 11 10 12 14 16 17 18 18 18 18 18 19 21 22 22 24 25 25 24 23 23 23 24 24 23 24 23 23 22 21 20 19 18 17 17 18 18 24 21
11 10 10 9 9 12 14 15 16 17 18 18 19 19 20 21 23 24 24 24 25 25 26 25 24 23 24 24 24 24 23 24 23 22 21 20 19 19 19 17 20 19 8
10 9 8 9 12 14 15 15 17 18 18 19 19 19 21 22 23 24 25 25 26 25 26 26 25 24 24 25 24 25 24 24 24 22 21 20 20 20 21 19 19 22 25
12 11 10 10 12 14 15 17 18 19 20 20 20 20 22 22 23 25 26 26 27 27 27 26 26 26 25 24 26 25 25 25 25 24 22 22 21 21 20 21 21 26 27
19 17 12 12 14 14 15 17 19 19 19 20 20 21 23 23 24 26 27 28 29 29 29 28 27 27 26 25 27 26 26 25 25 24 22 22 21 22 23 22 24 25 27
23 21 13 17 15 13 13 17 18 18 19 20 22 23 24 25 26 28 29 30 30 31 30 30 29 28 28 27 27 28 27 27 26 25 25 23 22 23 23 23 24 26 29
22 23 18 10 8 11 15 16 16 19 21 23 25 27 26 28 29 30 31 32 32 33 33 32 31 30 29 28 28 29 27 27 27 26 26 26 24 24 24 24 25 25 26
3 3 5 6 10 13 15 17 18 21 25 27 29 30 31 33 34 34 34 35 35 35 34 34 33 32 31 30 28 28 26 26 26 26 25 25 27 27 26 25 24 24 27
6 5 7 11 13 16 19 22 24 26 28 30 32 33 34 35 36 36 35 36 36 35 35 34 33 33 32 30 28 29 26 23 25 24 23 23 24 26 27 29 29 25 28
9 10 12 15 18 20 24 27 29 30 31 33 35 36 36 38 38 37 37 36 36 35 34 34 33 34 33 30 27 28 27 25 27 27 27 25 23 24 24 25 29 30 30
9 12 16 18 21 24 27 30 32 33 34 36 37 36 37 37 37 36 35 34 34 34 34 33 33 33 34 30 28 27 24 27 28 29 27 27 26 25 23 23 25 29 33
15 18 21 24 27 28 30 33 34 34 36 37 36 35 34 35 35 36 34 33 31 32 32 32 32 31 32 29 27 24 23 25 26 27 28 27 27 26 25 27 25 25 29
18 22 26 30 31 31 33 34 36 36 35 34 36 35 31 31 33 31 32 30 28 28 27 29 28 28 29 28 25 22 23 26 26 24 26 26 29 27 26 28 29 28 25
24 26 29 34 37 36 34 36 34 33 33 35 34 32 29 30 32 33 32 29 26 24 25 26 27 27 27 27 24 22 24 26 26 26 26 25 25 26 29 28 30 31 24
28 31 34 39 40 38 35 34 34 33 33 30 30 31 28 29 32 29 28 24 22 23 23 23 24 23 22 22 22 20 22 24 26 26 25 24 24 24 24 28 31 27 27
32 34 37 41 42 38 36 36 34 35 33 31 32 31 29 28 27 24 21 20 19 21 21 21 22 21 19 19 19 19 19 21 24 27 26 25 24 22 24 25 28 30 29
36 38 39 42 42 40 37 31 36 33 33 33 32 28 27 27 22 20 19 19 19 21 21 21 22 21 19 19 19 19 19 19 21 23 26 26 24 26 25 24 26 31 31
39 39 39 39 40 38 35 34 29 29 30 29 29 26 24 21 19 18 19 20 20 21 24 26 28 31 32 27 24 22 21 23 24 23 21 21 19 27 23 28 24 30 33
38 37 37 37 37 35 32 29 27 25 26 26 23 22 20 19 19 20 21 20 20 22 23 25 27 29 28 28 27 27 26 25 24 28 30 27 23 19 23 22 30 27 29
Wind_Direction
195 192 189 190 192 201 219 253 297 311 319 322 318 317 313 312 308 309 313 319 324 325 326 326 325 326 324 326 327 326 325 322 323 324 314 317 302 273 255 245 241 233 234
197 194 194 196 200 209 226 262 297 305 314 322 320 319 317 314 310 310 314 317 317 319 321 321 321 322 319 321 322 321 321 319 323 325 326 326 323 268 265 260 246 231 238
190 190 194 197 201 210 230 271 289 299 311 315 313 313 312 311 313 313 313 312 314 317 318 318 317 316 314 315 316 315 316 312 315 318 309 322 311 318 297 253 239 238 240
182 184 188 194 199 212 241 269 288 298 306 306 309 311 312 310 310 312 314 317 318 318 317 315 315 314 311 311 311 308 306 305 304 304 284 277 285 314 315 259 258 224 242
180 183 184 192 201 220 252 273 285 298 301 299 303 307 308 309 311 313 315 317 318 320 317 313 312 310 308 308 306 304 300 296 291 287 284 281 278 273 271 290 290 276 228
178 181 187 195 209 235 254 271 287 295 295 298 302 305 305 309 308 311 314 318 320 322 319 313 311 309 307 306 303 299 295 290 285 280 276 271 269 265 275 281 285 296 282
172 180 189 201 222 239 255 272 286 291 292 294 297 299 302 306 308 312 315 317 318 319 319 314 310 308 305 303 300 295 291 287 282 277 272 267 264 264 265 275 278 286 280
173 183 197 212 223 237 255 269 281 287 290 294 297 298 303 308 310 309 310 313 314 314 315 313 310 308 305 302 299 294 290 286 284 279 270 265 262 260 258 264 273 283 287
187 197 206 218 236 248 258 271 287 292 292 295 300 303 302 307 309 308 309 311 311 312 313 313 309 306 304 302 299 293 290 287 284 279 272 264 261 258 253 251 260 256 291
199 206 218 233 245 256 266 281 292 295 298 301 301 299 300 304 305 304 306 308 309 310 310 309 306 303 302 300 297 293 290 286 284 279 272 265 260 255 253 248 253 253 243
217 222 235 254 263 266 271 282 297 302 301 301 299 300 303 306 305 303 304 304 304 305 305 302 300 299 299 298 294 291 289 286 283 278 269 265 258 255 251 250 249 252 245
231 234 237 267 278 275 272 289 300 301 302 303 303 305 308 308 306 303 302 302 302 303 303 300 297 295 295 294 291 290 287 284 279 276 269 264 261 255 251 248 249 252 251
232 227 264 300 282 277 286 298 301 305 307 309 311 311 312 308 304 303 302 302 301 301 300 297 295 292 291 290 289 288 286 283 278 274 269 264 260 256 250 246 244 248 250
257 260 279 278 277 293 302 305 308 306 307 310 309 309 311 310 309 308 307 304 301 298 296 293 291 289 287 286 286 285 283 281 276 272 268 265 258 255 253 246 242 248 247
300 267 284 311 319 319 313 308 310 307 305 306 308 310 311 308 306 305 302 300 297 294 292 290 289 287 285 284 285 282 279 276 272 269 266 263 262 256 249 248 244 246 247
352 347 339 337 332 323 319 319 317 317 315 312 309 306 303 301 301 300 297 295 293 292 289 288 287 286 283 283 283 281 274 268 269 265 262 261 260 259 253 249 245 240 244
12 359 338 326 325 321 319 318 316 313 310 308 307 305 303 301 300 300 299 296 294 290 286 285 283 282 281 282 280 277 270 264 261 261 261 259 254 256 254 249 244 242 241
353 333 322 314 318 320 318 313 312 310 307 305 305 304 303 302 302 302 299 298 293 286 283 281 279 279 278 281 279 275 266 263 259 257 256 256 256 250 251 250 246 240 232
333 328 326 324 323 323 318 313 311 310 308 309 306 305 304 301 302 301 299 295 289 284 281 280 277 276 277 279 277 272 264 260 257 255 254 252 253 251 245 247 246 244 245
333 334 331 326 324 323 317 314 314 312 312 309 304 304 300 299 301 298 296 292 284 281 279 278 276 277 277 278 274 266 263 261 260 259 258 254 251 250 246 243 243 245 243
326 325 323 324 325 322 319 315 313 310 310 306 304 301 301 302 300 298 295 291 284 280 278 278 278 278 276 277 275 267 260 258 260 260 258 256 254 248 244 242 242 240 241
321 320 320 321 323 322 321 315 311 315 311 306 301 301 300 300 300 297 295 287 281 280 279 280 282 281 279 278 276 268 260 258 258 259 261 258 255 251 246 240 240 240 235
319 318 319 320 321 325 323 316 316 316 310 305 303 302 299 300 299 294 291 286 282 280 281 280 282 283 282 281 278 273 266 263 259 261 261 258 257 254 248 242 234 231 230
321 323 321 321 319 320 319 315 315 315 311 307 306 303 300 302 299 293 289 287 285 284 282 281 282 285 284 283 281 279 275 268 255 256 255 254 252 249 251 243 233 229 229
318 320 321 318 316 319 318 315 314 313 307 307 308 304 304 307 308 309 307 302 301 293 290 289 289 290 292 288 284 278 270 275 278 274 259 255 251 248 242 237 237 229 226
322 318 319 320 321 318 318 319 321 316 312 313 311 308 308 311 314 313 312 312 304 304 296 289 286 287 284 285 283 280 277 273 271 262 249 249 244 240 241 231 231 231 227